Volver al catálogo

NOAA 16 DEB

ActivoSSO
NORAD 41266·DEBRIS·🇺🇸 United States

Lanzado Sep 21, 2000 desde Vandenberg Space Force Base

Loading…

Próximos Pases (próximas 24 horas)

TLE

ActualizadoSource: Space-Track

Época: Sep 13, 2026, 11:23 UTC

1 41266U 00055FS  26256.47487165  .00002025  00000-0  82553-3 0  9997
2 41266  98.6437 321.7215 0005861 131.6715 228.4969 14.28495934552891

Sigue NOAA 16 DEB en tiempo real con AllMySat

Download on the App Store